Date String (YYYY-MM-DD hh:mm:ss) UTC,Instrument flags,Ambient pressure (hPa),Sample flow (lpm),Bypass flow (lpm),Sample temperature (°C),Ambient temperature (°C),ASC tube jacket temperature (°C),LED temperature (°C),Box temperature (°C),Sample RH (%),Span deviation,Mass concentration (μg/m³),Mass concentration (μg/m³),Mass concentration (μg/m³)
DateTimeUTC,F1_M11,P_M11,Q1_M11,Q2_M11,T1_M11,T2_M11,T3_M11,T4_M11,T5_M11,U1_M11,ZSPAN_M11,X0_M11,X2_M11,X1_M11
2022-02-19 12:00:00,,0828.3,5.01,0.00,22.6,23.0,00.0,31.4,24.5,09.0,0000.0,0002.89,0000.82,0000.65
2022-02-19 12:01:00,,0828.2,4.99,0.00,22.7,23.0,00.0,31.4,24.6,09.0,0000.0,0002.27,0000.81,0000.64
2022-02-19 12:02:00,,0828.3,5.01,0.00,22.7,22.9,00.0,31.5,24.6,08.9,0000.0,0002.04,0000.82,0000.64
2022-02-19 12:03:00,,0828.2,5.00,0.00,22.7,22.7,00.0,31.5,24.6,08.9,0000.0,0002.16,0000.83,0000.63
2022-02-19 12:04:00,,0828.2,5.00,0.00,22.7,22.6,00.0,31.5,24.6,08.9,0000.0,0002.20,0000.82,0000.62
2022-02-19 12:05:00,,0828.3,5.00,0.00,22.7,22.4,00.0,31.5,24.6,08.9,0000.0,0002.30,0000.86,0000.61
2022-02-19 12:06:00,,0828.3,5.01,0.00,22.7,22.4,00.0,31.5,24.5,09.0,0000.0,0002.35,0000.87,0000.60
2022-02-19 12:07:00,,0828.1,5.00,0.00,22.7,22.3,00.0,31.5,24.5,09.0,0000.0,0002.39,0000.88,0000.60
2022-02-19 12:08:00,,0828.1,5.00,0.00,22.7,22.2,00.0,31.5,24.5,09.0,0000.0,0002.38,0000.90,0000.59
2022-02-19 12:09:00,,0828.2,5.00,0.00,22.7,22.1,00.0,31.5,24.5,09.0,0000.0,0001.98,0000.93,0000.59
2022-02-19 12:10:00,,0828.1,5.00,0.00,22.7,22.1,00.0,31.5,24.5,09.1,0000.0,0002.22,0000.96,0000.59
2022-02-19 12:11:00,,0828.1,5.00,0.00,22.7,22.0,00.0,31.5,24.5,09.1,0000.0,0003.36,0000.99,0000.60
2022-02-19 12:12:00,,0828.1,5.02,0.00,22.6,22.0,00.0,31.5,24.4,09.1,0000.0,0003.80,0000.99,0000.60
2022-02-19 12:13:00,,0828.1,5.00,0.00,22.6,21.9,00.0,31.5,24.4,09.1,0000.0,0003.83,0001.00,0000.60
2022-02-19 12:14:00,,0828.2,4.99,0.00,22.6,21.9,00.0,31.5,24.4,09.0,0000.0,0003.72,0001.02,0000.64
2022-02-19 12:15:00,,0828.2,5.01,0.00,22.6,21.9,00.0,31.5,24.3,09.1,0000.0,0003.82,0001.10,0000.70
2022-02-19 12:16:00,,0828.1,5.00,0.00,22.6,21.8,00.0,31.5,24.3,09.1,0000.0,0003.86,0001.13,0000.75
2022-02-19 12:17:00,,0828.1,4.99,0.00,22.6,21.8,00.0,31.5,24.3,09.1,0000.0,0003.84,0001.17,0000.80
2022-02-19 12:18:00,,0828.1,5.00,0.00,22.6,21.8,00.0,31.5,24.3,09.1,0000.0,0003.91,0001.24,0000.87
2022-02-19 12:19:00,,0828.1,5.00,0.00,22.6,21.8,00.0,31.5,24.3,09.1,0000.0,0004.24,0001.34,0000.95
2022-02-19 12:20:00,,0828.2,4.98,0.00,22.6,21.8,00.0,31.5,24.3,09.1,0000.0,0004.31,0001.42,0001.04
2022-02-19 12:21:00,,0828.0,5.01,0.00,22.5,21.8,00.0,31.5,24.3,09.1,0000.0,0004.25,0001.54,0001.13
2022-02-19 12:22:00,,0828.2,4.99,0.00,22.5,21.7,00.0,31.5,24.3,09.1,0000.0,0003.45,0001.61,0001.21
2022-02-19 12:23:00,,0828.1,5.00,0.00,22.5,21.7,00.0,31.5,24.3,09.1,0000.0,0002.79,0001.66,0001.30
2022-02-19 12:24:00,,0828.1,4.99,0.00,22.5,21.7,00.0,31.5,24.2,09.0,0000.0,0002.94,0001.77,0001.37
2022-02-19 12:25:00,,0828.0,5.01,0.00,22.5,21.7,00.0,31.5,24.2,09.1,0000.0,0003.05,0001.84,0001.41
2022-02-19 12:26:00,,0828.0,4.99,0.00,22.5,21.7,00.0,31.5,24.2,09.1,0000.0,0003.18,0001.87,0001.42
2022-02-19 12:27:00,,0828.1,4.99,0.00,22.4,21.7,00.0,31.5,24.2,09.1,0000.0,0003.24,0001.87,0001.42
2022-02-19 12:28:00,,0828.2,5.01,0.00,22.4,21.7,00.0,31.4,24.2,09.0,0000.0,0003.32,0001.87,0001.42
2022-02-19 12:29:00,,0828.0,5.00,0.00,22.4,21.7,00.0,31.4,24.2,09.1,0000.0,0003.62,0001.87,0001.41
2022-02-19 12:30:00,,0828.1,4.99,0.00,22.4,21.6,00.0,31.4,24.1,09.1,0000.0,0004.19,0001.79,0001.38
2022-02-19 12:31:00,,0828.0,5.00,0.00,22.4,21.8,00.0,31.4,24.2,09.1,0000.0,0003.95,0001.73,0001.36
2022-02-19 12:32:00,,0828.1,5.00,0.00,22.5,22.3,00.0,31.5,24.3,09.1,0000.0,0003.80,0001.67,0001.35
2022-02-19 12:33:00,,0828.0,5.01,0.00,22.6,23.0,00.0,31.5,24.6,09.0,0000.0,0003.83,0001.69,0001.38
2022-02-19 12:34:00,,0828.1,5.01,0.00,22.7,23.1,00.0,31.5,24.7,09.0,0000.0,0003.95,0001.76,0001.41
2022-02-19 12:35:00,,0828.1,4.99,0.00,22.7,22.9,00.0,31.5,24.6,09.0,0000.0,0004.05,0001.84,0001.49
2022-02-19 12:36:00,,0828.1,5.00,0.00,22.7,22.7,00.0,31.5,24.6,09.1,0000.0,0004.11,0001.91,0001.57
2022-02-19 12:37:00,,0828.2,5.01,0.00,22.7,22.5,00.0,31.5,24.5,09.1,0000.0,0004.07,0001.99,0001.66
2022-02-19 12:38:00,,0828.0,5.01,0.00,22.7,22.4,00.0,31.5,24.5,09.1,0000.0,0004.41,0002.11,0001.75
2022-02-19 12:39:00,,0827.9,5.00,0.00,22.7,22.3,00.0,31.5,24.5,09.1,0000.0,0005.23,0002.21,0001.85
2022-02-19 12:40:00,,0827.9,5.00,0.00,22.7,22.2,00.0,31.5,24.5,09.1,0000.0,0005.04,0002.30,0001.94
2022-02-19 12:41:00,,0828.0,4.99,0.00,22.7,22.1,00.0,31.6,24.5,09.1,0000.0,0004.53,0002.46,0002.02
2022-02-19 12:42:00,,0827.9,5.02,0.00,22.6,22.1,00.0,31.6,24.4,09.1,0000.0,0004.65,0002.54,0002.09
2022-02-19 12:43:00,,0828.0,4.99,0.00,22.6,22.0,00.0,31.6,24.4,09.1,0000.0,0004.78,0002.63,0002.15
2022-02-19 12:44:00,,0828.0,4.99,0.00,22.6,21.9,00.0,31.6,24.4,09.1,0000.0,0004.82,0002.66,0002.17
2022-02-19 12:45:00,,0828.0,5.00,0.00,22.6,21.9,00.0,31.6,24.4,09.1,0000.0,0004.95,0002.67,0002.16
2022-02-19 12:46:00,,0827.9,5.00,0.00,22.6,21.9,00.0,31.5,24.3,09.1,0000.0,0004.94,0002.66,0002.15
2022-02-19 12:47:00,,0827.9,5.00,0.00,22.6,21.8,00.0,31.5,24.3,09.1,0000.0,0005.09,0002.65,0002.16
2022-02-19 12:48:00,,0827.9,5.01,0.00,22.6,21.8,00.0,31.5,24.3,09.1,0000.0,0005.67,0002.64,0002.13
2022-02-19 12:49:00,,0827.9,4.99,0.00,22.6,21.8,00.0,31.5,24.3,09.1,0000.0,0005.39,0002.62,0002.12
2022-02-19 12:50:00,,0827.9,5.00,0.00,22.5,21.8,00.0,31.5,24.3,09.2,0000.0,0004.72,0002.63,0002.10
2022-02-19 12:51:00,,0827.9,5.00,0.00,22.5,21.8,00.0,31.5,24.3,09.2,0000.0,0004.73,0002.61,0002.08
2022-02-19 12:52:00,,0827.9,5.01,0.00,22.5,21.8,00.0,31.5,24.3,09.2,0000.0,0004.48,0002.55,0002.07
2022-02-19 12:53:00,,0828.0,5.00,0.00,22.5,21.7,00.0,31.5,24.3,09.2,0000.0,0004.58,0002.57,0002.06
2022-02-19 12:54:00,,0827.9,4.99,0.00,22.5,21.7,00.0,31.5,24.2,09.2,0000.0,0004.73,0002.57,0002.04
2022-02-19 12:55:00,,0827.9,4.99,0.00,22.5,21.7,00.0,31.5,24.2,09.2,0000.0,0004.80,0002.56,0002.04
2022-02-19 12:56:00,,0827.9,5.01,0.00,22.4,21.7,00.0,31.5,24.2,09.2,0000.0,0006.55,0002.53,0002.02
2022-02-19 12:57:00,,0828.0,5.01,0.00,22.4,21.7,00.0,31.4,24.2,09.2,0000.0,0006.89,0002.50,0002.00
2022-02-19 12:58:00,,0827.9,5.00,0.00,22.4,21.6,00.0,31.4,24.2,09.2,0000.0,0007.31,0002.53,0001.97
2022-02-19 12:59:00,,0827.9,4.99,0.00,22.4,21.6,00.0,31.4,24.1,09.2,0000.0,0007.06,0002.52,0001.96
